Oakes, ND

6:16 PM CST on January 23, 2017 (GMT -0600)
Oakes

Weather History for K2D5 - November, 2011

Change the Weather History Date:

Wednesday, November 9, 2011

  Actual Average (KP67) Record (KP67)
Temperature  
Mean Temperature 34 °F -  
Max Temperature 41 °F 30 °F 32 °F (1997)
Min Temperature 26 °F 17 °F 18 °F (1997)
Degree Days  
Heating Degree Days 32    
Moisture  
Dew Point 24 °F    
Average Humidity 72    
Maximum Humidity 93    
Minimum Humidity 45    
Precipitation  
Precipitation 0.00 in - - ()
Sea Level Pressure  
Sea Level Pressure 30.17 in    
Wind  
Wind Speed 14 mph (WNW)    
Max Wind Speed 30 mph    
Max Gust Speed 39 mph    
Visibility 10 miles    
Events      
Averages and records for this station are not official NWS values.
T = Trace of Precipitation, MM = Missing Value Source: NWS Daily Summary

Daily Weather History Graph

Daily Weather History Graph

Search for Another Location

Airport or City:

Trip Planner

Search our weather history database for the weather conditions in past years. The results will help you decide how hot, cold, wet, or windy it might be!

Date:

Astronomy

Nov. 09, 2011 Rise Set
Actual Time 7:24 AM CST 5:07 PM CST
Civil Twilight 6:52 AM CST 5:39 PM CST
Nautical Twilight 6:16 AM CST 6:15 PM CST
Astronomical Twilight 5:41 AM CST 6:50 PM CST
Moon 4:19 PM CST (11/9) 6:21 AM CST (11/9)
Length of Visible Light 10h 46m
Length of Day
9h 42m
Waxing Gibbous, 99% of the Moon is Illuminated
Nov 9
Waxing Gibbous
Nov 10
Full
Nov 18
Last Quarter
Nov 25
New
Dec 2
First Quarter

Hourly Weather History & Observations

Time (CST) Temp. Windchill Dew Point Humidity Pressure Visibility Wind Dir Wind Speed Gust Speed Precip Events Conditions
12:15 AM 26.6 °F 17.5 °F 23.0 °F 86% 30.14 in 10.0 mi West 9.2 mph - N/A   Clear
12:35 AM 26.6 °F 17.5 °F 24.8 °F 93% 30.15 in 10.0 mi West 9.2 mph - N/A   Clear
1:15 AM 26.6 °F 19.1 °F 24.8 °F 93% 30.15 in 10.0 mi WNW 6.9 mph - N/A   Clear
1:35 AM 26.6 °F 20.0 °F 24.8 °F 93% 30.15 in 10.0 mi WNW 5.8 mph - N/A   Clear
1:55 AM 26.6 °F 22.6 °F 24.8 °F 93% 30.16 in 10.0 mi WNW 3.5 mph - N/A   Clear
2:15 AM 26.6 °F 19.1 °F 23.0 °F 86% 30.16 in 10.0 mi WNW 6.9 mph - N/A   Clear
2:35 AM 26.6 °F 16.8 °F 24.8 °F 93% 30.16 in 10.0 mi WNW 10.4 mph - N/A   Clear
2:55 AM 26.6 °F 18.2 °F 24.8 °F 93% 30.16 in 10.0 mi WNW 8.1 mph - N/A   Clear
3:15 AM 26.6 °F 18.2 °F 24.8 °F 93% 30.17 in 10.0 mi West 8.1 mph - N/A   Clear
3:35 AM 26.6 °F 18.2 °F 24.8 °F 93% 30.17 in 10.0 mi WNW 8.1 mph - N/A   Clear
4:15 AM 28.4 °F 18.0 °F 24.8 °F 86% 30.17 in 10.0 mi WNW 12.7 mph - N/A   Clear
4:35 AM 28.4 °F 17.5 °F 24.8 °F 86% 30.17 in 10.0 mi WNW 13.8 mph - N/A   Clear
4:55 AM 28.4 °F 16.6 °F 24.8 °F 86% 30.16 in 10.0 mi WNW 16.1 mph - N/A   Clear
5:15 AM 26.6 °F 15.2 °F 24.8 °F 93% 30.17 in 10.0 mi WNW 13.8 mph - N/A   Clear
5:35 AM 26.6 °F 14.7 °F 24.8 °F 93% 30.17 in 10.0 mi WNW 15.0 mph - N/A   Clear
6:15 AM 26.6 °F 16.2 °F 24.8 °F 93% 30.17 in 10.0 mi WNW 11.5 mph - N/A   Clear
6:35 AM 26.6 °F 15.7 °F 24.8 °F 93% 30.18 in 10.0 mi WNW 12.7 mph - N/A   Clear
6:55 AM 26.6 °F 16.2 °F 24.8 °F 93% 30.18 in 10.0 mi WNW 11.5 mph - N/A   Clear
7:15 AM 26.6 °F 16.2 °F 24.8 °F 93% 30.18 in 10.0 mi WNW 11.5 mph - N/A   Clear
7:35 AM 26.6 °F 15.7 °F 24.8 °F 93% 30.18 in 10.0 mi WNW 12.7 mph - N/A   Clear
8:15 AM 28.4 °F 15.4 °F 26.6 °F 93% 30.19 in 10.0 mi WNW 19.6 mph 26.5 mph N/A   Clear
8:35 AM 28.4 °F 15.4 °F 26.6 °F 93% 30.19 in 10.0 mi WNW 19.6 mph 26.5 mph N/A   Clear
8:55 AM 30.2 °F 18.9 °F 26.6 °F 86% 30.19 in 10.0 mi WNW 16.1 mph 26.5 mph N/A   Clear
9:15 AM 32.0 °F 20.1 °F 26.6 °F 80% 30.20 in 10.0 mi WNW 19.6 mph 26.5 mph N/A   Clear
9:35 AM 32.0 °F 19.2 °F 26.6 °F 80% 30.20 in 10.0 mi WNW 23.0 mph 26.5 mph N/A   Clear
9:55 AM 33.8 °F 21.3 °F 26.6 °F 75% 30.20 in 10.0 mi WNW 24.2 mph 28.8 mph N/A   Clear
10:15 AM 35.6 °F 24.8 °F 26.6 °F 70% 30.21 in 10.0 mi WNW 19.6 mph 27.6 mph N/A   Clear
10:35 AM 37.4 °F 27.5 °F 24.8 °F 60% 30.20 in 10.0 mi WNW 18.4 mph 26.5 mph N/A   Clear
10:55 AM 37.4 °F 27.2 °F 24.8 °F 60% 30.20 in 10.0 mi WNW 19.6 mph 23.0 mph N/A   Clear
11:15 AM 39.2 °F 28.3 °F 23.0 °F 52% 30.19 in 10.0 mi NW 25.3 mph 32.2 mph N/A   Clear
11:35 AM 39.2 °F 29.3 °F 23.0 °F 52% 30.19 in 10.0 mi NW 20.7 mph 32.2 mph N/A   Clear
11:55 AM 39.2 °F 28.7 °F 23.0 °F 52% 30.19 in 10.0 mi NW 23.0 mph 32.2 mph N/A   Clear
12:15 PM 41.0 °F 30.7 °F 23.0 °F 49% 30.18 in 10.0 mi NW 25.3 mph 32.2 mph N/A   Clear
12:35 PM 41.0 °F 29.8 °F 23.0 °F 49% 30.18 in 10.0 mi NW 29.9 mph 39.1 mph N/A   Partly Cloudy
12:55 PM 39.2 °F 28.5 °F 23.0 °F 52% 30.17 in 10.0 mi WNW 24.2 mph 32.2 mph N/A   Partly Cloudy
1:15 PM 39.2 °F 28.5 °F 21.2 °F 49% 30.17 in 10.0 mi NW 24.2 mph 32.2 mph N/A   Mostly Cloudy
1:35 PM 39.2 °F 27.8 °F 21.2 °F 49% 30.17 in 10.0 mi WNW 27.6 mph 36.8 mph N/A   Scattered Clouds
1:55 PM 39.2 °F 27.8 °F 19.4 °F 45% 30.16 in 10.0 mi NW 27.6 mph 38.0 mph N/A   Partly Cloudy
2:35 PM 39.2 °F 27.6 °F 23.0 °F 52% 30.16 in 10.0 mi NW 28.8 mph 34.5 mph N/A   Scattered Clouds
2:55 PM 39.2 °F 28.5 °F 23.0 °F 52% 30.16 in 10.0 mi NW 24.2 mph 35.7 mph N/A   Mostly Cloudy
3:15 PM 39.2 °F 28.0 °F 23.0 °F 52% 30.16 in 10.0 mi NW 26.5 mph 33.4 mph N/A   Scattered Clouds
3:35 PM 39.2 °F 28.0 °F 23.0 °F 52% 30.15 in 10.0 mi NW 26.5 mph 39.1 mph N/A   Clear
3:55 PM 39.2 °F 28.0 °F 23.0 °F 52% 30.16 in 10.0 mi NW 26.5 mph 33.4 mph N/A   Scattered Clouds
4:15 PM 39.2 °F 29.8 °F 23.0 °F 52% 30.16 in 10.0 mi NW 18.4 mph 32.2 mph N/A   Mostly Cloudy
4:35 PM 37.4 °F 26.6 °F 23.0 °F 56% 30.16 in 10.0 mi NW 21.9 mph 28.8 mph N/A   Scattered Clouds
4:55 PM 37.4 °F 26.6 °F 23.0 °F 56% 30.16 in 10.0 mi NW 21.9 mph 29.9 mph N/A   Scattered Clouds
5:15 PM 37.4 °F 27.5 °F 23.0 °F 56% 30.16 in 10.0 mi NW 18.4 mph 31.1 mph N/A   Partly Cloudy
5:35 PM 35.6 °F 26.6 °F 23.0 °F 60% 30.17 in 10.0 mi NW 13.8 mph - N/A   Clear
5:55 PM 35.6 °F 26.6 °F 21.2 °F 56% 30.17 in 10.0 mi WNW 13.8 mph - N/A   Clear
6:15 PM 35.6 °F 26.2 °F 21.2 °F 56% 30.17 in 10.0 mi NW 15.0 mph 19.6 mph N/A   Clear
6:35 PM 33.8 °F 24.8 °F 21.2 °F 60% 30.17 in 10.0 mi WNW 12.7 mph - N/A   Clear
6:55 PM 32.0 °F 22.1 °F 21.2 °F 64% 30.17 in 10.0 mi WNW 13.8 mph - N/A   Clear
7:15 PM 32.0 °F 21.6 °F 23.0 °F 69% 30.16 in 10.0 mi WNW 15.0 mph - N/A   Clear
7:35 PM 32.0 °F 23.6 °F 23.0 °F 69% 30.16 in 10.0 mi West 10.4 mph - N/A   Clear
7:55 PM 32.0 °F 22.5 °F 23.0 °F 69% 30.16 in 10.0 mi WNW 12.7 mph - N/A   Clear
8:15 PM 28.4 °F 18.5 °F 23.0 °F 80% 30.16 in 10.0 mi West 11.5 mph - N/A   Clear
8:35 PM 28.4 °F 19.1 °F 21.2 °F 74% 30.16 in 10.0 mi WNW 10.4 mph - N/A   Clear
8:55 PM 28.4 °F 18.0 °F 21.2 °F 74% 30.16 in 10.0 mi WNW 12.7 mph - N/A   Clear
9:15 PM 28.4 °F 17.0 °F 23.0 °F 80% 30.16 in 10.0 mi WNW 15.0 mph - N/A   Clear
9:35 PM 28.4 °F 16.6 °F 23.0 °F 80% 30.16 in 10.0 mi WNW 16.1 mph - N/A   Clear
9:55 PM 32.0 °F 20.5 °F 23.0 °F 69% 30.16 in 10.0 mi WNW 18.4 mph 26.5 mph N/A   Clear
10:15 PM 30.2 °F 18.1 °F 23.0 °F 75% 30.17 in 10.0 mi WNW 18.4 mph - N/A   Unknown
10:35 PM 28.4 °F 17.0 °F 23.0 °F 80% 30.17 in 10.0 mi WNW 15.0 mph - N/A   Clear
10:55 PM 28.4 °F 16.6 °F 23.0 °F 80% 30.16 in 10.0 mi WNW 16.1 mph - N/A   Clear
11:15 PM 28.4 °F 16.6 °F 23.0 °F 80% 30.16 in 10.0 mi WNW 16.1 mph - N/A   Clear
11:35 PM 28.4 °F 16.6 °F 23.0 °F 80% 30.16 in 10.0 mi WNW 16.1 mph - N/A   Clear
11:55 PM 28.4 °F 17.5 °F 23.0 °F 80% 30.17 in 10.0 mi WNW 13.8 mph - N/A   Clear